Regional Weather Roundup
Issued by NWS

Home | Current Version | Previous Version | Text Only | Print | Product List | Glossary Off
Versions: 1 2 3 4 5 6 7 8 9 10 11 12 13 14 15 16 17 18 19 20 21 22 23 24 25 26 27 28 29 30 31 32 33 34 35 36 37 38 39 40 41 42 43 44 45 46 47 48 49 50

731
ASUS43 KDTX 080201
RWRMI
MICHIGAN HOURLY REGIONAL WEATHER ROUNDUP
NATIONAL WEATHER SERVICE DETROIT/PONTIAC MI
900 PM EST WED DEC 07 2016

NOTE: "FAIR" INDICATES FEW OR NO CLOUDS BELOW 12,000 FEET WITH NO
SIGNIFICANT WEATHER AND/OR OBSTRUCTION TO VISIBILITY.

MIZ047>049-052>055-059>063-066>070-074>076-081>083-080300-
SOUTHEAST LOWER MICHIGAN

CITY           SKY/WX    TMP DP  RH WIND       PRES   REMARKS
ADRIAN         PTCLDY    30  24  78 W10       30.05F WCI  21
ALMA           CLOUDY    32  24  70 W13G20    29.97F WCI  23
ANN ARBOR      PTCLDY    29  22  75 SW12      30.02F WCI  19
BAD AXE        CLOUDY    32  24  73 SW13G18   29.94S WCI  22
CARO           CLOUDY    32  24  72 SW13G21   29.95S WCI  22
DETROIT CITY   PTCLDY    32  22  66 W14G23    30.02F WCI  22
DETROIT        MOCLDY    32  23  69 W10       30.04F WCI  24
FLINT          CLOUDY    33  22  63 SW14      29.99F WCI  23
GROSSE ILE     PTCLDY    32  25  76 W8        30.03S WCI  25
HILLSDALE      PTCLDY    28  21  74 W14G24    30.03S WCI  17
HOWELL         CLOUDY    31  22  68 SW8       30.00F WCI  24

CITY           SKY/WX    TMP DP  RH WIND       PRES   REMARKS
JACKSON        CLOUDY    29  20  69 SW18G24   30.03S WCI  16
LAMBERTVILLE   PTCLDY    32  26  76 W7        30.05F WCI  26
LANSING        CLOUDY    32  22  66 W16       30.01S WCI  21
LAPEER         NOT AVBL
MASON          CLOUDY    31  23  74 W10G17    30.02S WCI  22
MONROE         PTCLDY    32  26  79 W9        30.03F WCI  24
MT. CLEMENS    PTCLDY    33  23  68 W10       29.98F WCI  24
PONTIAC        CLOUDY    31  22  69 W14G23    29.98F WCI  21
PORT HOPE        N/A     33  24  69 SW9G17    29.91F WCI  25
PORT HURON     PTCLDY    32  25  74 SW5       29.99S WCI  27
TRI CITIES     CLOUDY    33  25  72 SW13G22   29.96S WCI  24
MIDLAND        CLOUDY    33  21  61 W10G17    29.95S WCI  25
TROY           MOCLDY    33  22  64 SW8       30.02F WCI  25
SAGINAW HB     CLOUDY    34  25  69 SW14G21   29.96S WCI  24
$$
MIZ043>046-050>051-056>058-064>065-071>073-077>080-080300-
SOUTHWEST LOWER MICHIGAN

CITY           SKY/WX    TMP DP  RH WIND       PRES   REMARKS
BATTLE CREEK   CLOUDY    30  22  72 W17G24    30.04S WCI  18
BENTON HARBOR  CLOUDY    30  20  66 W22       30.09S WCI  17
BIG RAPIDS     CLOUDY    30  20  68 W15       29.96R WCI  19
COLDWATER      CLOUDY    29  21  73 W15G21    30.06S WCI  17
FREMONT        CLOUDY    29  19  66 W10G18    30.00S WCI  19
HOLLAND        CLOUDY    31  24  75 W16G28    30.05R WCI  20
GRAND RAPIDS   CLOUDY    32  22  66 W25G32    30.01F WCI  19
IONIA          CLOUDY    32  24  71 W20G26    29.99S WCI  20
KALAMAZOO      CLOUDY    30  20  66 SW14      30.05F WCI  19
LUDINGTON      CLOUDY    27  19  74 W14G21    30.00S WCI  15
MARSHALL       CLOUDY    29  22  73 SW14      30.04R WCI  19
MOUNT PLEASANT CLOUDY    31  21  66 W16G25    29.95F WCI  20
MUSKEGON       CLOUDY    30  21  69 W17G24    30.03S WCI  18
SOUTH HAVEN    CLOUDY    30  22  72 W14G22    30.07F WCI  20
$$
MIZ016>042-080300-
NORTHERN LOWER MICHIGAN

CITY           SKY/WX    TMP DP  RH WIND       PRES   REMARKS
ALPENA         CLOUDY    30  17  58 SW17G26   29.86S WCI  18
BEAVER ISLAND  CLOUDY    28  20  71 W16G33    29.84R WCI  17
BELLAIRE       FLURRIES  30  22  71 SW10G21   29.89S WCI  21
CADILLAC       CLOUDY    25  18  74 W10G17    29.89S WCI  15
CHARLEVOIX     FLURRIES  30  22  72 W16G30    29.88S WCI  19
FRANKFORT      CLOUDY    28  20  71 W9G24     29.94S WCI  20
GAYLORD        CLOUDY    27  18  69 SW16      29.82F WCI  15
GRAYLING       CLOUDY    27  20  74 SW12G22   29.87S WCI  17
HARBOR SPRINGS CLOUDY    31  23  71 W16G32    29.82S WCI  20
HOUGHTON LAKE  CLOUDY    27  18  69 W21G33    29.90S WCI  13
MANISTEE       FLURRIES  27  19  72 W14G24    29.97R WCI  16
OSCODA         CLOUDY    32  19  58 MISG      29.89F
PELLSTON       FLURRIES  29  19  66 W13G20    29.82S WCI  19
ROGERS CITY    CLOUDY    30  20  66 SW12G22   29.83F WCI  21
TRAVERSE CITY  FLURRIES  30  18  60 SW12G23   29.90S WCI  20
$$
MIZ007>008-015-080300-
EASTERN UPPER MICHIGAN

CITY           SKY/WX    TMP DP  RH WIND       PRES   REMARKS
MACKINAC ISLAN LGT SNOW  28  22  78 W15G26    29.80S WCI  16
NEWBERRY       PTCLDY    22  13  67 SW15G23   29.79S WCI   9
MUNISING         N/A     23  12  62 SW9       29.82S WCI  13
$$
MIZ004>006-011>014-085-080300-
CENTRAL UPPER MICHIGAN

CITY           SKY/WX    TMP DP  RH WIND       PRES   REMARKS
MANISTIQUE     CLOUDY    24  13  63 W9        29.84S WCI  14
$$
MIZ001>003-009>011-084-080300-
WESTERN UPPER MICHIGAN

CITY           SKY/WX    TMP DP  RH WIND       PRES   REMARKS
$$

ABBREVIATIONS USED IN REMARKS
   TC - TEMPERATURE IN CELSIUS
  WCI - WIND CHILL INDEX
   HX - HEAT INDEX
  VSB - VISIBILITY





USA.gov is the U.S. government's official web portal to all federal, state and local government web resources and services.